TimeMDT,TemperatureF,Dew PointF,Humidity,Sea Level PressureIn,VisibilityMPH,Wind Direction,Wind SpeedMPH,Gust SpeedMPH,PrecipitationIn,Events,Conditions,WindDirDegrees,DateUTC
12:15 AM,42.8,21.2,42,29.97,10.0,WNW,11.5,-,N/A,,Clear,290,2013-04-23 06:15:00
12:35 AM,42.8,21.2,42,29.97,10.0,WSW,4.6,-,N/A,,Partly Cloudy,250,2013-04-23 06:35:00
12:55 AM,41.0,21.2,45,29.97,10.0,Calm,Calm,-,N/A,,Clear,0,2013-04-23 06:55:00
1:15 AM,37.4,24.8,60,29.96,10.0,East,3.5,-,N/A,,Clear,90,2013-04-23 07:15:00
1:35 AM,37.4,24.8,60,29.96,10.0,ENE,5.8,-,N/A,,Partly Cloudy,70,2013-04-23 07:35:00
1:55 AM,39.2,21.2,49,29.96,10.0,Calm,Calm,-,N/A,,Mostly Cloudy,0,2013-04-23 07:55:00
2:15 AM,37.4,21.2,52,29.96,10.0,West,10.4,-,N/A,,Overcast,260,2013-04-23 08:15:00
2:35 AM,37.4,23.0,56,29.96,10.0,West,10.4,19.6,N/A,,Overcast,280,2013-04-23 08:35:00
2:55 AM,37.4,23.0,56,29.97,10.0,NW,8.1,-,N/A,,Overcast,310,2013-04-23 08:55:00
3:15 AM,35.6,24.8,65,29.98,5.0,North,10.4,20.7,N/A,,Overcast,350,2013-04-23 09:15:00
3:35 AM,32.0,24.8,75,29.98,2.0,North,11.5,17.3,N/A,,Overcast,360,2013-04-23 09:35:00
4:15 AM,32.0,21.2,64,30.00,7.0,North,5.8,-,N/A,,Overcast,350,2013-04-23 10:15:00
4:35 AM,30.2,23.0,75,30.01,1.8,WNW,5.8,-,N/A,,Overcast,300,2013-04-23 10:35:00
4:55 AM,28.4,24.8,86,30.02,0.8,North,3.5,-,N/A,,Overcast,350,2013-04-23 10:55:00
5:15 AM,28.4,24.8,86,30.01,4.0,East,3.5,-,N/A,,Overcast,90,2013-04-23 11:15:00
5:35 AM,28.4,24.8,86,30.01,5.0,Calm,Calm,-,0.01,,Overcast,0,2013-04-23 11:35:00
5:55 AM,30.2,24.8,80,30.01,7.0,SSW,8.1,-,0.01,,Overcast,210,2013-04-23 11:55:00
6:35 AM,30.2,23.0,75,30.00,10.0,SW,9.2,17.3,N/A,,Overcast,220,2013-04-23 12:35:00
6:55 AM,28.4,23.0,80,30.01,7.0,SW,12.7,-,N/A,,Overcast,230,2013-04-23 12:55:00
7:15 AM,28.4,23.0,80,30.01,10.0,SW,8.1,-,N/A,,Mostly Cloudy,220,2013-04-23 13:15:00
7:35 AM,28.4,23.0,80,30.01,10.0,SW,6.9,-,N/A,,Partly Cloudy,220,2013-04-23 13:35:00
7:55 AM,30.2,24.8,80,30.01,10.0,SW,11.5,-,N/A,,Clear,230,2013-04-23 13:55:00
8:15 AM,30.2,24.8,80,30.01,10.0,WSW,11.5,18.4,N/A,,Clear,240,2013-04-23 14:15:00
8:35 AM,32.0,24.8,75,30.01,10.0,SW,8.1,-,N/A,,Clear,230,2013-04-23 14:35:00
8:55 AM,33.8,24.8,70,30.01,10.0,SW,15.0,-,N/A,,Clear,230,2013-04-23 14:55:00
9:15 AM,32.0,24.8,75,30.01,10.0,SW,13.8,20.7,N/A,,Scattered Clouds,230,2013-04-23 15:15:00
9:55 AM,35.6,24.8,65,30.01,10.0,West,16.1,24.2,N/A,,Clear,270,2013-04-23 15:55:00
10:15 AM,33.8,23.0,65,30.01,10.0,NNW,6.9,-,N/A,,Mostly Cloudy,340,2013-04-23 16:15:00
10:35 AM,35.6,19.4,52,30.01,10.0,SW,13.8,18.4,N/A,,Mostly Cloudy,220,2013-04-23 16:35:00
10:55 AM,37.4,17.6,45,30.02,10.0,SW,17.3,-,N/A,,Mostly Cloudy,230,2013-04-23 16:55:00
11:15 AM,37.4,15.8,41,30.02,10.0,SW,16.1,24.2,N/A,,Mostly Cloudy,220,2013-04-23 17:15:00
11:35 AM,37.4,15.8,41,30.02,10.0,SW,16.1,23.0,N/A,,Mostly Cloudy,220,2013-04-23 17:35:00
11:55 AM,37.4,15.8,41,30.02,10.0,SW,17.3,24.2,N/A,,Mostly Cloudy,220,2013-04-23 17:55:00
12:15 PM,37.4,15.8,41,30.02,10.0,SW,18.4,25.3,N/A,,Mostly Cloudy,220,2013-04-23 18:15:00
12:35 PM,39.2,14.0,36,30.02,10.0,SW,20.7,24.2,N/A,,Overcast,220,2013-04-23 18:35:00
12:55 PM,37.4,12.2,36,30.02,10.0,SW,19.6,27.6,N/A,,Overcast,220,2013-04-23 18:55:00
1:15 PM,39.2,12.2,33,30.01,10.0,SW,17.3,27.6,N/A,,Mostly Cloudy,230,2013-04-23 19:15:00
1:35 PM,37.4,10.4,33,30.02,10.0,WNW,13.8,17.3,N/A,,Mostly Cloudy,290,2013-04-23 19:35:00
1:55 PM,39.2,12.2,33,30.03,10.0,West,19.6,28.8,N/A,,Overcast,260,2013-04-23 19:55:00
2:15 PM,37.4,12.2,36,30.04,10.0,West,10.4,23.0,N/A,,Overcast,260,2013-04-23 20:15:00
2:35 PM,37.4,10.4,33,30.04,10.0,West,13.8,28.8,N/A,,Overcast,270,2013-04-23 20:35:00
2:55 PM,39.2,10.4,31,30.05,10.0,West,10.4,24.2,N/A,,Mostly Cloudy,280,2013-04-23 20:55:00
3:55 PM,39.2,10.4,31,30.05,10.0,WNW,18.4,23.0,N/A,,Mostly Cloudy,290,2013-04-23 21:55:00
4:15 PM,39.2,8.6,28,30.05,10.0,WNW,15.0,19.6,N/A,,Scattered Clouds,300,2013-04-23 22:15:00
4:35 PM,41.0,10.4,29,30.05,10.0,WNW,12.7,24.2,N/A,,Mostly Cloudy,300,2013-04-23 22:35:00
4:55 PM,39.2,8.6,28,30.05,10.0,WNW,11.5,25.3,N/A,,Scattered Clouds,290,2013-04-23 22:55:00
5:15 PM,39.2,10.4,31,30.06,10.0,West,15.0,18.4,N/A,,Partly Cloudy,280,2013-04-23 23:15:00
5:35 PM,39.2,8.6,28,30.06,10.0,WNW,11.5,19.6,N/A,,Scattered Clouds,300,2013-04-23 23:35:00
5:55 PM,39.2,10.4,31,30.08,10.0,NW,18.4,26.5,N/A,,Mostly Cloudy,310,2013-04-23 23:55:00
6:15 PM,35.6,12.2,38,30.10,10.0,NW,15.0,-,N/A,,Scattered Clouds,310,2013-04-24 00:15:00
6:35 PM,35.6,14.0,41,30.11,10.0,WNW,21.9,28.8,N/A,,Partly Cloudy,290,2013-04-24 00:35:00
6:55 PM,35.6,12.2,38,30.11,10.0,WNW,18.4,-,N/A,,Partly Cloudy,300,2013-04-24 00:55:00
7:15 PM,35.6,10.4,35,30.11,10.0,NNW,9.2,-,N/A,,Clear,340,2013-04-24 01:15:00
7:35 PM,35.6,10.4,35,30.11,10.0,North,10.4,-,N/A,,Partly Cloudy,360,2013-04-24 01:35:00
7:55 PM,33.8,10.4,38,30.12,10.0,North,11.5,-,N/A,,Partly Cloudy,360,2013-04-24 01:55:00
8:15 PM,33.8,10.4,38,30.13,10.0,NNW,12.7,-,N/A,,Clear,330,2013-04-24 02:15:00
8:35 PM,32.0,10.4,41,30.15,10.0,NNW,5.8,-,N/A,,Clear,340,2013-04-24 02:35:00
8:55 PM,30.2,10.4,44,30.15,10.0,NNW,8.1,-,N/A,,Clear,340,2013-04-24 02:55:00
9:15 PM,30.2,12.2,47,30.16,10.0,SE,3.5,-,N/A,,Clear,140,2013-04-24 03:15:00
9:35 PM,30.2,12.2,47,30.17,10.0,Calm,Calm,-,N/A,,Clear,0,2013-04-24 03:35:00
9:55 PM,30.2,10.4,44,30.18,10.0,NNW,5.8,-,N/A,,Clear,340,2013-04-24 03:55:00
10:15 PM,28.4,10.4,47,30.19,10.0,SE,3.5,-,N/A,,Clear,140,2013-04-24 04:15:00
10:35 PM,26.6,10.4,51,30.19,10.0,Calm,Calm,-,N/A,,Clear,0,2013-04-24 04:35:00
11:15 PM,26.6,10.4,51,30.18,10.0,NNW,6.9,-,N/A,,Clear,330,2013-04-24 05:15:00
11:35 PM,24.8,10.4,54,30.19,10.0,Calm,Calm,-,N/A,,Clear,0,2013-04-24 05:35:00